{"data":{"norad_id":64941,"epoch":"2026-09-20T21:26:07.983744Z","epoch_age_seconds":90216,"freshness":"FRESH","line1":"1 64941U 25158K   26263.89314796  .00030736  00000+0  95065-3 0  9997","line2":"2 64941  97.2824 122.1509 0000614   7.7819 352.3433 15.33440733 64704","mean_motion":15.33440733,"eccentricity":6.14e-5,"inclination_deg":97.2824,"raan_deg":122.1509,"arg_perigee_deg":7.7819,"mean_anomaly_deg":352.3433,"bstar":0.00095065,"rev_number":6470,"period_min":93.906465963168,"perigee_km":465.13566735526,"apogee_km":465.97607283971,"semimajor_km":6843.6928700975,"source":"CELESTRAK","updated_at":"2026-09-21T09:00:35.487795Z"}}